Tracking 29892 objects as of 21-Nov-2024
HD Live streaming from Space Station
objects crossing your sky now

FENGYUN 1C DEB

Track FENGYUN 1C DEB now!
10-day predictions


NORAD ID: 30736
Int'l Code: 1999-025ASW
Perigee: 834.4 km
Apogee: 1,252.9 km
Inclination: 98.8 °
Period: 105.9 minutes
Semi major axis: 7414 km
RCS: 0.0154 m2 (small)
Launch date: May 10, 1999
Source: People's Republic of China (PRC)
Launch site: Taiyaun Space Center, China (TSC)

Note: This is SATELLITE DEBRIS
Your satellite tracking list
Your tracking list is empty




NASA's NSSDC Master Catalog

Two Line Element Set (TLE):
1 30736U 99025ASW 24324.17602262  .00002444  00000-0  25689-2 0  9991
2 30736  98.8132  34.4230 0282204 346.6431  66.3469 13.59766589875680
Source of the keplerian elements: AFSPC